ASTRA 2A

Last updated on Fri May 23 2025 00:02:42 GMT+0000 (Coordinated Universal Time)

1 25462U 98050A 25142.35537414 .00000029 00000+0 00000+0 0 9996 2 25462 6.1080 73.5245 0024592 49.4238 145.2701 0.98658499 42413
UTC large
Height (km)
Speed (km/s)
/
Latitude / Longitude
Inclination (degrees)
Orbital Period (minutes)
Azimuth
Elevation
Range (km)
Doppler Factor

Next 0 passes for location: London (51.5072 / 0.1276)

Sorry there are no passes over London.
ASTRA 2A